Regional Weather Roundup
Issued by NWS

Home | Current Version | Previous Version | Text Only | Print | Product List | Glossary Off
Versions: 1 2 3 4 5 6 7 8 9 10 11 12 13 14 15 16 17 18 19 20 21 22 23 24 25 26 27 28 29 30 31 32 33 34 35 36 37 38 39 40 41 42 43 44 45 46 47 48 49 50

000
ASUS43 KTOP 201708
RWRKS

WEATHER ROUNDUP FOR KANSAS
NATIONAL WEATHER SERVICE GOODLAND KS
1200 PM CDT SUN AUG 20 2017

NOTE:  "FAIR" INDICATES FEW OR NO CLOUDS BELOW 12,000 FEET WITH NO
SIGNIFICANT WEATHER AND/OR OBSTRUCTIONS TO VISIBILITY.

KSZ001>006-013>018-027>032-041>047-201800-
NORTHWEST KANSAS

CITY           SKY/WX    TMP DP  RH WIND       PRES   REMARKS
GOODLAND       SUNNY     85  59  41 N5        30.00R
HAYS           PTSUNNY   92  67  43 S13       29.92F HX  95
HILL CITY      SUNNY     91  65  41 S7        29.93R
RUSSELL        CLOUDY    88  68  51 S15       29.92S
$$

KSZ061>065-074>080-084>089-201800-
SOUTHWEST KANSAS

CITY           SKY/WX    TMP DP  RH WIND       PRES   REMARKS
DODGE CITY     SUNNY     90  63  40 SW15      29.98S
ELKHART          N/A     84  64  50 SW10        N/A
GARDEN CITY    SUNNY     86  64  47 S13       29.98S
GREAT BEND     SUNNY     89  70  53 S12       29.95R
LIBERAL        SUNNY     87  66  49 MISG        N/A
PRATT          SUNNY     91  64  39 SW13      29.97S
$$

KSZ066>073-081>083-090>101-201800-
SOUTHEAST KANSAS

CITY           SKY/WX    TMP DP  RH WIND       PRES   REMARKS
CHANUTE        MOSUNNY   89  77  67 SE9       30.01F HX 101
COFFEYVILLE    SUNNY     90  77  65 S6        29.99F HX 103
HUTCHINSON     SUNNY     91  69  48 S14       29.95F HX  96
MEDICINE LODGE   N/A     89  69  51 S10       29.95S
NEWTON         MOSUNNY   88  71  57 S13       29.98F
PARSONS        SUNNY     90  75  61 VRB7      30.01F HX 100
WICHITA INTL   PTSUNNY   91  70  49 S14       29.96F HX  96
WICHITA JABRA  MOSUNNY   87  72  60 S13       29.97F
WICHITA MCCONL SUNNY     89  69  53 S9        29.98S
WINFIELD       SUNNY     89  73  59 S9        29.99F HX  97
$$

KSZ007>012-019>026-033>040-048>060-102>105-201800-
NORTHEAST KANSAS

CITY           SKY/WX    TMP DP  RH WIND       PRES   REMARKS
CONCORDIA      SUNNY     86  73  65 S15       29.92F
EMPORIA        SUNNY     87  71  58 S13       29.99F
LAWRENCE       SUNNY     84  70  62 SE20      29.99F
MANHATTAN      SUNNY     87  72  60 S14       29.94F
MARYSVILLE     SUNNY     86  70  58 S14G22    29.94S
OLATHE IND     SUNNY     82  69  64 SE15      30.02F
OLATHE EXE     SUNNY     81  70  69 SE14      30.02S
SALINA         MOSUNNY   93  67  42 S16       29.93S HX  96
TOPEKA BILLARD SUNNY     85  72  65 SE13      29.98F
TOPEKA FORBES  SUNNY     85  72  65 SE18G25   29.98F
$$




USA.gov is the U.S. government's official web portal to all federal, state and local government web resources and services.